Starlink 34576

operational
NORAD ID: 64701 Int'l Des: 2025-142 Owner: SPXS Country: US Constellation: starlink
LEOCIRCULAR

About Starlink 34576

Description loading...

Live Position

Loading 3D Globe...

Upcoming Passes

Altitude History

Altitude vs Time

uPlot chart will show altitude changes over time

Two-Line Element Set

1 64701U 25142F 25312.83464995 .00008766 00000-0 78887-3 0 9991
2 64701 70.0045 258.1206 0002309 275.7482 84.3412 14.95916541 21391
Epoch: Nov 8, 2025 • Age: 32 hours

Current Status

Altitude 596.3 km
Velocity 7.56 km/s
Sub-Earth Point -48.56°S, 122.63°E
Launch Date Jun 28, 2025
Age 0.3 years
Type internet

Technical Details

Classification Payload
Mass 575.00 kg
Dry Mass 530.00 kg
Total Mass 575.00 kg
Length 0.30 m
Diameter 4.10 m
Span 29.00 m
Shape Box + pan
Manufacturer SPXS
Bus Type Starlink V2MO
Phase Status In Orbit
Owner/State SPXS/US

Large Constellations

Loading constellations...